Date String (YYYY-MM-DD hh:mm:ss) UTC,Instrument flags,Ambient pressure (hPa),Sample flow (lpm),Bypass flow (lpm),Sample temperature (°C),Ambient temperature (°C),ASC tube jacket temperature (°C),LED temperature (°C),Box temperature (°C),Sample RH (%),Span deviation,Mass concentration (μg/m³),Mass concentration (μg/m³),Mass concentration (μg/m³)
DateTimeUTC,F1_M11,P_M11,Q1_M11,Q2_M11,T1_M11,T2_M11,T3_M11,T4_M11,T5_M11,U1_M11,ZSPAN_M11,X0_M11,X2_M11,X1_M11
2021-09-20 18:00:00,,0829.3,5.01,0.00,29.8,27.5,00.0,39.0,31.4,12.0,0000.0,0012.32,0003.15,0002.02
2021-09-20 18:01:00,,0829.3,4.99,0.00,29.8,27.8,00.0,39.0,31.4,11.9,0000.0,0012.44,0003.12,0002.01
2021-09-20 18:02:00,,0829.2,5.00,0.00,29.8,28.1,00.0,38.9,31.5,12.0,0000.0,0012.40,0003.11,0002.01
2021-09-20 18:03:00,,0829.2,5.00,0.00,29.8,28.3,00.0,39.0,31.6,12.1,0000.0,0012.23,0003.12,0002.01
2021-09-20 18:04:00,,0829.3,5.00,0.00,29.8,28.5,00.0,39.0,31.7,12.1,0000.0,0012.08,0003.12,0002.00
2021-09-20 18:05:00,,0829.2,5.00,0.00,29.9,28.7,00.0,39.0,31.7,12.0,0000.0,0011.80,0003.15,0002.02
2021-09-20 18:06:00,,0829.3,4.99,0.00,29.9,28.8,00.0,39.0,31.7,12.0,0000.0,0011.76,0003.22,0002.04
2021-09-20 18:07:00,,0829.3,5.00,0.00,30.0,29.0,00.0,39.0,31.8,11.9,0000.0,0011.09,0003.25,0002.04
2021-09-20 18:08:00,,0829.2,5.02,0.00,30.0,29.1,00.0,39.0,31.9,11.8,0000.0,0010.58,0003.24,0002.04
2021-09-20 18:09:00,,0829.3,5.00,0.00,30.0,29.1,00.0,39.0,31.9,11.8,0000.0,0010.63,0003.22,0002.04
2021-09-20 18:10:00,,0829.2,4.99,0.00,30.1,29.2,00.0,39.0,31.9,11.9,0000.0,0010.50,0003.22,0002.04
2021-09-20 18:11:00,,0829.3,5.02,0.00,30.1,29.3,00.0,39.1,31.9,11.9,0000.0,0010.75,0003.23,0002.06
2021-09-20 18:12:00,,0829.2,5.00,0.00,30.1,29.3,00.0,39.1,32.0,12.0,0000.0,0010.78,0003.24,0002.08
2021-09-20 18:13:00,,0829.2,5.00,0.00,30.2,29.4,00.0,39.1,32.0,12.1,0000.0,0010.70,0003.20,0002.09
2021-09-20 18:14:00,,0829.2,5.00,0.00,30.2,28.6,00.0,39.1,31.8,12.0,0000.0,0011.30,0003.22,0002.10
2021-09-20 18:15:00,,0829.3,5.00,0.00,30.0,26.5,00.0,39.1,31.2,12.1,0000.0,0011.45,0003.23,0002.10
2021-09-20 18:16:00,,0829.2,5.02,0.00,29.8,26.0,00.0,39.1,31.0,12.1,0000.0,0011.58,0003.24,0002.11
2021-09-20 18:17:00,,0829.2,5.01,0.00,29.8,26.4,00.0,39.0,31.1,12.0,0000.0,0011.23,0003.19,0002.10
2021-09-20 18:18:00,,0829.2,4.99,0.00,29.7,26.8,00.0,39.0,31.2,12.0,0000.0,0010.85,0003.15,0002.10
2021-09-20 18:19:00,,0829.2,5.00,0.00,29.7,27.3,00.0,38.9,31.3,12.0,0000.0,0010.74,0003.13,0002.10
2021-09-20 18:20:00,,0829.2,5.00,0.00,29.7,27.7,00.0,38.9,31.3,11.9,0000.0,0011.08,0003.16,0002.11
2021-09-20 18:21:00,,0829.3,4.99,0.00,29.7,28.0,00.0,38.9,31.4,12.0,0000.0,0010.93,0003.17,0002.11
2021-09-20 18:22:00,,0829.3,5.00,0.00,29.8,28.2,00.0,38.9,31.5,12.1,0000.0,0010.25,0003.15,0002.09
2021-09-20 18:23:00,,0829.3,5.01,0.00,29.8,28.5,00.0,38.9,31.6,12.0,0000.0,0010.04,0003.13,0002.07
2021-09-20 18:24:00,,0829.3,4.99,0.00,29.8,28.6,00.0,38.9,31.6,12.0,0000.0,0010.10,0003.15,0002.06
2021-09-20 18:25:00,,0829.4,5.00,0.00,29.9,28.8,00.0,38.9,31.7,12.1,0000.0,0009.66,0003.16,0002.04
2021-09-20 18:26:00,,0829.3,5.00,0.00,29.9,28.9,00.0,38.9,31.8,12.1,0000.0,0009.12,0003.19,0002.05
2021-09-20 18:27:00,,0829.3,5.01,0.00,29.9,29.0,00.0,38.9,31.8,11.9,0000.0,0009.39,0003.20,0002.02
2021-09-20 18:28:00,,0829.3,4.98,0.00,30.0,29.1,00.0,39.0,31.8,11.9,0000.0,0010.31,0003.22,0001.99
2021-09-20 18:29:00,,0829.4,5.00,0.00,30.0,29.2,00.0,39.0,31.9,11.8,0000.0,0010.86,0003.27,0001.97
2021-09-20 18:30:00,,0829.3,5.00,0.00,30.1,29.2,00.0,39.0,32.0,11.7,0000.0,0011.05,0003.28,0001.94
2021-09-20 18:31:00,,0829.4,5.01,0.00,30.1,29.3,00.0,39.0,32.0,11.9,0000.0,0011.29,0003.27,0001.93
2021-09-20 18:32:00,,0829.2,4.98,0.00,30.1,29.4,00.0,39.1,32.0,11.9,0000.0,0011.02,0003.27,0001.93
2021-09-20 18:33:00,,0829.2,5.01,0.00,30.2,29.4,00.0,39.1,32.0,11.8,0000.0,0011.17,0003.28,0001.92
2021-09-20 18:34:00,,0829.2,5.00,0.00,30.2,29.0,00.0,39.1,31.9,11.7,0000.0,0011.21,0003.30,0001.93
2021-09-20 18:35:00,,0829.3,5.00,0.00,30.1,27.0,00.0,39.1,31.4,11.7,0000.0,0011.48,0003.29,0001.93
2021-09-20 18:36:00,,0829.3,5.00,0.00,29.9,25.9,00.0,39.1,31.1,12.0,0000.0,0011.08,0003.23,0001.93
2021-09-20 18:37:00,,0829.3,5.00,0.00,29.8,26.2,00.0,39.0,31.2,11.9,0000.0,0011.45,0003.19,0001.91
2021-09-20 18:38:00,,0829.3,4.99,0.00,29.7,26.7,00.0,39.0,31.2,11.7,0000.0,0011.12,0003.17,0001.90
2021-09-20 18:39:00,,0829.3,5.00,0.00,29.7,27.2,00.0,38.9,31.3,11.8,0000.0,0010.68,0003.16,0001.90
2021-09-20 18:40:00,,0829.3,5.00,0.00,29.7,27.6,00.0,38.9,31.4,11.8,0000.0,0010.38,0003.11,0001.89
2021-09-20 18:41:00,,0829.2,5.01,0.00,29.7,27.9,00.0,38.9,31.4,11.8,0000.0,0010.28,0003.10,0001.90
2021-09-20 18:42:00,,0829.2,4.98,0.00,29.8,28.2,00.0,38.9,31.5,11.8,0000.0,0010.28,0003.12,0001.88
2021-09-20 18:43:00,,0829.2,5.01,0.00,29.8,28.4,00.0,38.9,31.6,11.8,0000.0,0010.04,0003.09,0001.86
2021-09-20 18:44:00,,0829.2,5.00,0.00,29.8,28.6,00.0,38.9,31.6,11.6,0000.0,0010.25,0003.06,0001.86
2021-09-20 18:45:00,,0829.3,4.99,0.00,29.9,28.7,00.0,38.9,31.7,11.6,0000.0,0010.48,0003.07,0001.84
2021-09-20 18:46:00,,0829.2,5.00,0.00,29.9,28.9,00.0,38.9,31.7,11.5,0000.0,0010.40,0003.09,0001.83
2021-09-20 18:47:00,,0829.2,5.01,0.00,29.9,29.0,00.0,38.9,31.8,11.5,0000.0,0010.53,0003.13,0001.83
2021-09-20 18:48:00,,0829.3,5.00,0.00,30.0,29.1,00.0,39.0,31.8,11.5,0000.0,0010.01,0003.13,0001.84
2021-09-20 18:49:00,,0829.2,5.00,0.00,30.0,29.2,00.0,39.0,31.9,11.5,0000.0,0010.05,0003.12,0001.84
2021-09-20 18:50:00,,0829.3,5.00,0.00,30.0,29.2,00.0,39.0,31.9,11.5,0000.0,0009.68,0003.12,0001.84
2021-09-20 18:51:00,,0829.2,4.99,0.00,30.1,29.3,00.0,39.0,31.9,11.8,0000.0,0009.42,0003.15,0001.84
2021-09-20 18:52:00,,0829.2,4.99,0.00,30.1,29.4,00.0,39.1,32.0,11.5,0000.0,0009.81,0003.18,0001.84
2021-09-20 18:53:00,,0829.3,5.01,0.00,30.2,29.4,00.0,39.1,32.0,11.6,0000.0,0009.50,0003.16,0001.84
2021-09-20 18:54:00,,0829.4,4.99,0.00,30.2,28.5,00.0,39.1,31.8,11.5,0000.0,0009.38,0003.16,0001.83
2021-09-20 18:55:00,,0829.3,5.01,0.00,30.0,26.9,00.0,39.1,31.3,11.7,0000.0,0008.58,0003.15,0001.82
2021-09-20 18:56:00,,0829.3,5.00,0.00,29.9,26.9,00.0,39.1,31.3,11.6,0000.0,0008.37,0003.11,0001.82
2021-09-20 18:57:00,,0829.2,4.99,0.00,29.9,27.2,00.0,39.0,31.4,11.8,0000.0,0009.46,0003.09,0001.82
2021-09-20 18:58:00,,0829.3,5.00,0.00,29.8,27.6,00.0,39.0,31.4,11.7,0000.0,0010.10,0003.07,0001.81
2021-09-20 18:59:00,,0829.3,5.00,0.00,29.9,28.0,00.0,39.0,31.5,11.5,0000.0,0010.31,0003.06,0001.80
